Location: Saluda
(35.2377°N, 82.3468°W)
Time: 14:30:53
(UTC+00:00)

Courier 1B Rocket - All Passes

Search period start: 03 October 2022 00:00
Search period end: 13 October 2022 00:00
Orbit: 920 x 1202 km, 28.2° (Epoch: 02 October)

Date Brightness Start Highest point End Pass type
(mag) Time Alt. Az. Time Alt. Az. Time Alt. Az.
03 Oct - 01:41:42 10° WSW 01:47:50 44° S 01:53:44 10° ESE visible
03 Oct - 03:34:58 10° WSW 03:40:47 39° S 03:46:32 10° ESE visible
03 Oct - 05:29:02 10° WSW 05:33:32 21° SSW 05:38:04 10° SSE night (unlit)
03 Oct - 22:48:38 10° SSW 22:53:59 24° SSE 22:59:05 10° ESE daylight
04 Oct - 00:40:41 10° WSW 00:46:55 41° S 00:52:50 10° ESE visible
04 Oct - 02:33:50 10° WSW 02:39:54 44° S 02:45:47 10° ESE visible
04 Oct - 04:27:34 10° WSW 04:32:44 27° SSW 04:37:52 10° SE night (unlit)
04 Oct - 21:48:25 10° SSW 21:53:04 18° SSE 21:57:31 10° ESE daylight
04 Oct - 23:39:43 10° SW 23:45:58 37° SSE 23:51:50 10° ESE visible
05 Oct - 01:32:42 10° WSW 01:38:59 46° S 01:44:58 10° ESE visible
05 Oct - 03:26:15 10° WSW 03:31:54 34° SSW 03:37:25 10° SE visible
05 Oct - 05:21:14 10° WSW 05:24:31 15° SSW 05:27:47 10° S night (unlit)
05 Oct - 20:48:52 10° S 20:52:08 13° SSE 20:55:19 10° SE daylight
05 Oct - 22:38:53 10° SW 22:45:00 31° SSE 22:50:46 10° ESE daylight
06 Oct - 00:31:34 10° WSW 00:38:01 46° S 00:44:07 10° ESE visible
06 Oct - 02:25:01 10° WSW 02:31:02 40° S 02:36:49 10° ESE visible
06 Oct - 04:19:15 10° WSW 04:23:45 20° SSW 04:28:12 10° SSE night (unlit)
06 Oct - 21:38:14 10° SSW 21:44:01 26° SSE 21:49:31 10° ESE daylight
06 Oct - 23:30:27 10° WSW 23:37:02 43° S 23:43:12 10° ESE visible
07 Oct - 01:23:46 10° WSW 01:30:07 45° S 01:36:07 10° ESE visible
07 Oct - 03:17:40 10° WSW 03:22:58 27° SSW 03:28:05 10° SE visible
07 Oct - 20:37:54 10° SSW 20:43:02 20° SSE 20:47:58 10° ESE daylight
07 Oct - 22:29:24 10° SW 22:36:01 38° SSE 22:42:13 10° ESE daylight
08 Oct - 00:22:32 10° WSW 00:29:09 47° S 00:35:20 10° ESE visible
08 Oct - 02:16:14 10° WSW 02:22:07 34° SSW 02:27:44 10° SE visible
08 Oct - 04:11:26 10° WSW 04:14:43 14° SSW 04:17:56 10° S night (unlit)
08 Oct - 19:38:10 10° S 19:42:03 15° SSE 19:45:49 10° ESE daylight
08 Oct - 21:28:30 10° SW 21:34:59 33° SSE 21:41:06 10° ESE daylight
08 Oct - 23:21:18 10° WSW 23:28:07 47° S 23:34:29 10° ESE visible
09 Oct - 01:14:52 10° WSW 01:21:12 41° SSW 01:27:10 10° ESE visible
09 Oct - 03:09:17 10° WSW 03:13:56 21° SSW 03:18:28 10° SSE visible
09 Oct - 20:27:46 10° SSW 20:33:56 27° SSE 20:39:49 10° ESE daylight
09 Oct - 22:20:07 10° WSW 22:27:03 45° S 22:33:33 10° ESE daylight
10 Oct - 00:13:33 10° WSW 00:20:14 46° S 00:26:29 10° ESE visible
10 Oct - 02:07:35 10° WSW 02:13:08 28° SSW 02:18:25 10° SE visible
10 Oct - 19:27:24 10° SSW 19:32:54 21° SSE 19:38:14 10° ESE daylight
10 Oct - 21:19:00 10° SW 21:25:58 40° SSE 21:32:31 10° E daylight
10 Oct - 23:12:14 10° WSW 23:19:12 49° S 23:25:41 10° ESE visible
11 Oct - 01:06:03 10° W 01:12:15 35° SSW 01:18:04 10° SE visible
11 Oct - 03:01:23 10° WSW 03:04:52 15° SSW 03:08:15 10° S visible
11 Oct - 18:27:35 10° S 18:31:53 16° SSE 18:36:06 10° ESE daylight
11 Oct - 20:18:04 10° SW 20:24:52 35° SSE 20:31:20 10° E daylight
11 Oct - 22:10:56 10° WSW 22:18:06 49° S 22:24:47 10° ESE daylight
12 Oct - 00:04:36 10° W 00:11:17 42° SSW 00:17:31 10° ESE visible
12 Oct - 01:59:08 10° WSW 02:04:04 21° SSW 02:08:48 10° SSE visible
12 Oct - 17:29:37 10° SSE 17:30:52 10° SSE 17:32:07 10° SE daylight
12 Oct - 19:17:21 10° SW 19:23:46 28° SSE 19:29:59 10° ESE daylight
12 Oct - 21:09:43 10° WSW 21:16:58 46° S 21:23:48 10° ESE daylight
12 Oct - 23:03:13 10° WSW 23:10:15 47° S 23:16:48 10° ESE daylight
